CDT,Max TemperatureF,Mean TemperatureF,Min TemperatureF,Max Dew PointF,MeanDew PointF,Min DewpointF,Max Humidity, Mean Humidity, Min Humidity, Max Sea Level PressureIn, Mean Sea Level PressureIn, Min Sea Level PressureIn, Max VisibilityMiles, Mean VisibilityMiles, Min VisibilityMiles, Max Wind SpeedMPH, Mean Wind SpeedMPH, Max Gust SpeedMPH,PrecipitationIn, CloudCover, Events, WindDirDegrees
2013-7-1,84,72,60,61,54,46,82,56,27,30.24,30.21,30.18,10,10,2,9,5,,0.00,0,,19
2013-7-2,84,72,60,61,56,52,88,60,35,30.20,30.15,30.08,10,10,7,8,3,,0.00,1,,88
2013-7-3,84,72,60,61,55,48,83,57,29,30.10,30.04,29.96,10,10,10,10,5,,0.00,1,,158
2013-7-4,87,73,59,61,56,54,88,55,31,29.96,29.88,29.82,10,10,4,21,9,26,0.00,0,,160
2013-7-5,87,78,69,66,61,55,83,55,43,29.84,29.81,29.78,10,10,7,17,12,24,0.00,0,,189
2013-7-6,78,73,68,72,67,63,100,81,65,29.85,29.83,29.80,10,9,4,13,7,,0.00,1,,135
2013-7-7,89,78,68,72,68,63,100,75,40,29.96,29.88,29.82,10,8,1,13,5,17,0.00,0,,340
2013-7-8,87,74,62,66,62,55,94,67,35,30.04,29.99,29.96,10,10,7,9,6,,0.00,0,,78
2013-7-9,82,73,64,72,66,55,100,81,54,30.01,29.89,29.75,10,9,2,21,10,28,0.00,3,,265
2013-7-10,78,66,55,61,56,52,100,69,39,30.12,30.08,30.03,10,9,4,14,7,18,0.00,0,,301
2013-7-11,82,70,57,64,60,55,94,69,45,30.11,30.04,29.94,10,9,5,20,6,24,0.00,0,,151
2013-7-12,89,78,68,70,63,57,73,59,49,29.95,29.90,29.83,10,10,10,25,15,34,0.00,0,,162
2013-7-13,80,74,69,70,66,64,88,81,65,30.05,29.97,29.89,10,10,10,14,8,17,0.00,3,,128
2013-7-14,71,68,66,66,65,61,94,88,73,30.21,30.12,30.03,10,8,3,9,6,,0.00,6,,122
2013-7-15,86,76,66,70,66,63,100,77,48,30.23,30.20,30.15,10,8,3,15,7,20,0.00,3,,145
2013-7-16,89,79,69,70,68,64,94,72,46,30.23,30.19,30.15,10,9,5,17,10,22,0.00,0,,191
2013-7-17,91,80,69,72,68,66,94,70,46,30.25,30.21,30.12,10,10,10,16,8,20,0.00,1,,206
2013-7-18,91,81,71,73,70,68,94,69,46,30.11,29.93,29.77,10,10,10,23,10,30,0.00,1,,205
2013-7-19,80,71,62,72,62,57,100,67,45,29.94,29.88,29.79,10,10,3,18,10,32,0.15,1,Rain-Thunderstorm,287
2013-7-20,78,70,62,63,61,57,100,79,51,30.00,29.96,29.91,10,10,7,8,4,,0.00,4,Thunderstorm,41
2013-7-21,82,70,59,66,61,55,94,73,51,29.97,29.88,29.77,10,10,10,10,7,16,0.00,2,,106
2013-7-22,78,68,57,68,61,54,94,73,50,29.94,29.78,29.70,10,10,5,21,10,28,0.00,2,Rain,293
2013-7-23,75,65,55,55,53,50,94,69,41,30.05,30.01,29.94,10,10,10,10,5,,0.00,1,,351
2013-7-24,80,68,57,61,55,48,94,66,37,30.08,30.03,29.96,10,10,10,12,4,17,0.00,2,,291
2013-7-25,78,68,57,63,60,54,100,79,47,30.03,29.97,29.93,10,9,2,15,6,17,0.09,1,Rain,255
2013-7-26,66,58,51,55,51,46,94,76,49,30.15,30.06,29.97,10,10,3,21,11,31,0.02,4,Rain,325
2013-7-27,69,56,44,46,44,41,93,64,37,30.15,30.08,30.00,10,10,10,21,9,25,0.00,3,,332
2013-7-28,73,58,44,54,47,43,93,65,38,30.09,30.04,30.03,10,10,10,15,6,21,0.00,1,,347
2013-7-29,75,63,51,59,53,50,94,74,41,30.12,30.09,30.08,10,10,7,13,4,16,0.07,2,Rain,150
2013-7-30,75,67,59,63,61,57,100,84,61,30.11,30.09,30.06,10,9,3,10,4,,0.01,6,Rain,185
2013-7-31,78,68,57,63,55,46,100,69,32,30.11,30.08,30.05,10,8,0,21,8,29,0.00,1,Fog,280